New York, NY

7:52 PM EDT on October 21, 2017 (GMT -0400)
La Guardia

Weather History for KLGA - December, 2013

Change the Weather History Date:

Monday, December 9, 2013

  Actual Average Record
Temperature  
Mean Temperature 36 °F 40 °F  
Max Temperature 39 °F 46 °F 66 °F (1966)
Min Temperature 32 °F 34 °F 13 °F (1968)
Degree Days  
Heating Degree Days 29 25  
Month to date heating degree days 206 210  
Since 1 July heating degree days 988 985  
Cooling Degree Days 0 0  
Month to date cooling degree days 0 0  
Year to date cooling degree days 1402 1214  
Moisture  
Dew Point 33 °F    
Average Humidity 83    
Maximum Humidity 96    
Minimum Humidity 70    
Precipitation  
Precipitation 0.21 in 0.13 in 2.68 in (2014)
Month to date precipitation 1.13 1.12  
Year to date precipitation 34.96 42.29  
Snow  
Snow T in 0.10 in 3.80 in (2005)
Month to date snowfall 0.7 0.9  
Since 1 July snowfall 0.9 1.2  
Snow Depth 0.00 in    
Sea Level Pressure  
Sea Level Pressure 30.12 in    
Wind  
Wind Speed 13 mph (NNE)    
Max Wind Speed 24 mph    
Max Gust Speed 30 mph    
Visibility 4 miles    
Events Rain    
T = Trace of Precipitation, MM = Missing Value Source: NWS Daily Summary

Daily Weather History Graph

Daily Weather History Graph

Search for Another Location

Airport or City:

Trip Planner

Search our weather history database for the weather conditions in past years. The results will help you decide how hot, cold, wet, or windy it might be!

Date:

Astronomy

Dec. 09, 2013 Rise Set
Actual Time 7:08 AM EST 4:27 PM EST
Civil Twilight 6:37 AM EST 4:58 PM EST
Nautical Twilight 6:02 AM EST 5:32 PM EST
Astronomical Twilight 5:29 AM EST 6:06 PM EST
Moon 11:57 AM EST (12/9) No Moon Set
Length of Visible Light 10h 21m
Length of Day
9h 19m
Waxing Crescent, 51% of the Moon is Illuminated
Dec 9
Waxing Crescent
Dec 17
Full
Dec 25
Last Quarter
Jan 1
New
Jan 7
First Quarter

Hourly Weather History & Observations

Time (EST) Temp. Windchill Dew Point Humidity Pressure Visibility Wind Dir Wind Speed Gust Speed Precip Events Conditions
12:33 AM 33.8 °F 23.9 °F 30.2 °F 87% 30.37 in 2.5 mi ENE 15.0 mph - 0.01 in Rain Light Freezing Rain
12:51 AM 32.0 °F 21.2 °F 30.0 °F 92% 30.35 in 2.5 mi NE 16.1 mph 20.7 mph 0.01 in Rain Light Freezing Rain
1:03 AM 32.0 °F 23.0 °F 30.2 °F 93% 30.35 in 2.5 mi NE 11.5 mph - 0.00 in Rain Light Freezing Rain
1:51 AM 33.1 °F 21.5 °F 30.0 °F 89% 30.32 in 2.5 mi ENE 19.6 mph - 0.02 in Rain Light Freezing Rain
2:51 AM 34.0 °F 23.0 °F 30.9 °F 89% 30.30 in 2.5 mi ENE 18.4 mph - 0.02 in Rain Light Freezing Rain
3:08 AM 33.8 °F 21.9 °F 30.2 °F 87% 30.29 in 2.5 mi East 21.9 mph - 0.00 in Rain Light Freezing Rain
3:19 AM 33.8 °F 22.8 °F 30.2 °F 87% 30.28 in 2.5 mi ENE 18.4 mph - 0.00 in Rain Light Rain
3:31 AM 33.8 °F 22.8 °F 30.2 °F 87% 30.26 in 3.0 mi ENE 18.4 mph - 0.01 in Rain Light Rain
3:51 AM 34.0 °F 23.0 °F 30.9 °F 89% 30.25 in 3.0 mi ENE 18.4 mph - 0.01 in Rain Light Rain
4:51 AM 34.0 °F 21.8 °F 30.9 °F 89% 30.21 in 3.0 mi ENE 23.0 mph - 0.01 in Rain Light Rain
5:51 AM 35.1 °F 23.5 °F 32.0 °F 89% 30.19 in 3.0 mi ENE 21.9 mph 28.8 mph 0.05 in Rain Rain
6:51 AM 36.0 °F 25.0 °F 33.1 °F 89% 30.17 in 3.0 mi ENE 20.7 mph 29.9 mph 0.02 in Rain Light Rain
7:02 AM 35.6 °F 26.2 °F 33.8 °F 93% 30.18 in 3.0 mi NNE 15.0 mph - 0.00 in Rain Light Rain
7:25 AM 35.6 °F 28.0 °F 30.2 °F 81% 30.18 in 1.5 mi NNE 10.4 mph 18.4 mph 0.03 in Rain Light Rain
7:51 AM 33.1 °F 23.9 °F 30.9 °F 92% 30.16 in 1.5 mi NE 12.7 mph - 0.05 in Rain Light Rain
8:46 AM 35.6 °F 28.6 °F 32.0 °F 87% 30.13 in 2.5 mi NNE 9.2 mph 18.4 mph 0.02 in Rain Light Rain
8:51 AM 34.0 °F 26.0 °F 32.0 °F 92% 30.13 in 2.5 mi NNE 10.4 mph - 0.02 in Rain Light Rain
9:51 AM 37.0 °F 27.0 °F 34.0 °F 89% 30.09 in 2.5 mi ENE 18.4 mph - 0.00 in Rain Light Rain
10:14 AM 37.4 °F 28.5 °F 33.8 °F 87% 30.09 in 2.0 mi NE 15.0 mph 23.0 mph 0.00 in Rain Light Rain
10:51 AM 37.0 °F 29.3 °F 34.0 °F 89% 30.07 in 2.0 mi NNE 11.5 mph 18.4 mph 0.00 in Rain Light Rain
11:51 AM 36.0 °F 29.6 °F 34.0 °F 93% 30.03 in 2.0 mi NNE 8.1 mph - 0.00 in   Light Drizzle
12:47 PM 37.4 °F 31.4 °F 35.6 °F 93% 29.98 in 3.0 mi NNE 8.1 mph - 0.00 in   Overcast
12:51 PM 37.0 °F 31.6 °F 34.0 °F 89% 29.97 in 3.0 mi North 6.9 mph - 0.00 in   Overcast
1:51 PM 37.9 °F 34.4 °F 35.1 °F 89% 29.97 in 2.0 mi Variable 4.6 mph - N/A   Overcast
2:51 PM 37.0 °F 31.6 °F 35.1 °F 93% 29.98 in 2.0 mi NW 6.9 mph - 0.00 in   Light Drizzle
3:51 PM 37.9 °F 31.5 °F 36.0 °F 93% 30.00 in 3.0 mi West 9.2 mph - 0.00 in   Overcast
4:09 PM 39.2 °F 33.0 °F 35.6 °F 87% 29.98 in 3.0 mi WNW 9.2 mph - N/A   Overcast
4:51 PM 39.0 °F 31.0 °F 35.1 °F 86% 29.99 in 3.0 mi West 13.8 mph - N/A   Overcast
5:51 PM 39.0 °F 35.7 °F 35.1 °F 86% 29.99 in 6.0 mi WSW 4.6 mph - N/A   Mostly Cloudy
6:12 PM 39.2 °F 32.0 °F 33.8 °F 81% 30.00 in 10.0 mi West 11.5 mph - N/A   Overcast
6:51 PM 37.9 °F 32.1 °F 34.0 °F 86% 30.00 in 10.0 mi WSW 8.1 mph - N/A   Overcast
7:51 PM 37.9 °F 32.1 °F 33.1 °F 83% 30.03 in 10.0 mi WSW 8.1 mph - N/A   Mostly Cloudy
8:00 PM 37.4 °F 32.8 °F 33.8 °F 87% 30.02 in 10.0 mi WSW 5.8 mph - N/A   Partly Cloudy
8:51 PM 37.9 °F 31.5 °F 33.1 °F 83% 30.02 in 9.0 mi WSW 9.2 mph - N/A   Scattered Clouds
9:51 PM 37.9 °F 30.9 °F 32.0 °F 79% 30.02 in 10.0 mi West 10.4 mph - N/A   Scattered Clouds
10:51 PM 39.0 °F 30.3 °F 30.9 °F 73% 30.01 in 10.0 mi West 16.1 mph 20.7 mph N/A   Mostly Cloudy
11:51 PM 39.0 °F 31.4 °F 30.0 °F 70% 30.01 in 10.0 mi West 12.7 mph - N/A   Mostly Cloudy